This is the latest recevied weather packets stored in our database for station/object JO1YDG-13. If no packets are shown the sender has not sent any weather packets the latest 10 day(s).
| Time | Temp. | Humidity | Pressure | Rain* | Wind** | Luminosity | Snow |
|---|---|---|---|---|---|---|---|
| 1777865775 | 30.56° C | 25% | 967.2 hPa | 0 mm | - | - | - |
| 1777865477 | 30° C | 28% | 967.2 hPa | 0 mm | - | - | - |
| 1777865177 | 30.56° C | 28% | 967.4 hPa | 0 mm | - | - | - |
| 1777864877 | 30° C | 26% | 967.4 hPa | 0 mm | - | - | - |
| 1777864577 | 30.56° C | 28% | 967.4 hPa | 0 mm | - | - | - |
| 1777864276 | 30° C | 28% | 967.5 hPa | 0 mm | - | - | - |
| 1777863976 | 30° C | 30% | 967.5 hPa | 0 mm | - | - | - |
| 1777863676 | 29.44° C | 28% | 967.7 hPa | 0 mm | - | - | - |
| 1777863376 | 30° C | 29% | 967.7 hPa | 0 mm | - | - | - |
| 1777863076 | 29.44° C | 29% | 967.7 hPa | 0 mm | - | - | - |
| 1777862775 | 29.44° C | 30% | 967.8 hPa | 0 mm | - | - | - |
| 1777862475 | 29.44° C | 32% | 967.8 hPa | 0 mm | - | - | - |
| 1777862176 | 29.44° C | 33% | 968.1 hPa | 0 mm | - | - | - |
| 1777861876 | 30° C | 35% | 968.1 hPa | 0 mm | - | - | - |
| 1777861576 | 30° C | 35% | 968 hPa | 0 mm | - | - | - |
| 1777861275 | 29.44° C | 35% | 968 hPa | 0 mm | - | - | - |
| 1777860975 | 28.89° C | 36% | 968 hPa | 0 mm | - | - | - |
| 1777860677 | 29.44° C | 36% | 968.3 hPa | 0 mm | - | - | - |
| 1777860377 | 29.44° C | 36% | 968.3 hPa | 0 mm | - | - | - |
| 1777860077 | 29.44° C | 38% | 968.4 hPa | 0 mm | - | - | - |
| 1777859777 | 28.89° C | 43% | 968.4 hPa | 0 mm | - | - | - |
| 1777859476 | 27.78° C | 55% | 968.4 hPa | 0 mm | - | - | - |
| 1777859176 | 27.78° C | 57% | 968.4 hPa | 0 mm | - | - | - |
| 1777858876 | 27.22° C | 60% | 968.4 hPa | 0 mm | - | - | - |
| 1777858576 | 26.67° C | 60% | 968.9 hPa | 0 mm | - | - | - |
* Rain latest hour (hover to see other rain measurements)
** Current wind speed in m/s (hover to see current wind gust speed)